sat.trackr.live / text

‹ back to catalog

STARLINK-34248

NORAD 64928 · 2025-157AA

PAYLOAD ACTIVE UNKNOWN

§ Identity

Operator
Country
US
Launch date
2025-07-26
Launch site
AFETR
Launch vehicle
Mass (kg)
RCS (m²)

Purposes: comms

External: N2YO · Heavens-Above · Gunter

§ Orbital elements

Epoch: 2026-05-24T23:50:31.475040Z

Period
94.10 min
Inclination
53.1584°
Eccentricity
0.0000693
Mean motion
15.30207932 rev/d
Perigee alt
474.7 km
Apogee alt
475.7 km
Semi-major
6,853.3 km
B*
9.1474e-4
RAAN
351.4224°
Arg perigee
60.1344°
Mean anomaly
299.9725°
Rev number
4,780

§ Raw data

STARLINK-342481 64928U 25157AA  26144.99341985  .00026837  00000+0  91474-3 0  99972 64928  53.1584 351.4224 0000693  60.1344 299.9725 15.30207932 47808

JSON: /api/v1/satellites/64928 · /tle

For live sub-satellite position, see the globe view (requires WebGL).

§ Visibility from observer

Set your observer location to see the next 7 days of passes ≥ 10°. The values pass through the URL so the page stays shareable.

No JS? Fill the form by hand. The geolocation button needs JavaScript.